User: anonymous   Login
Location: Unspecified
(0.0000°N, 0.0000°E)
Time: 21:23:11
(UTC+00:00)
Language:

FLTSATCOM F7 - Orbit

View from above orbital plane
View from above orbital plane
View from above satellite
View from above satellite

Ground track
Ground track

The orbit data is extracted from the following two-line orbital elements,

1 17181U 86096A   19146.44127281 -.00000294  00000-0  00000+0 0  9992
2 17181  14.6015 359.3406 0040318 274.1015 277.0340  0.98931599126402
Epoch (UTC): 26 May 2019 10:35:25
Eccentricity: 0.0040318
inclination: 14.6015°
perigee height: 35994 km
apogee height: 36337 km
right ascension of ascending node: 359.3406°
argument of perigee: 274.1015°
revolutions per day: 0.98931599
mean anomaly at epoch: 277.0340°
orbit number at epoch: 12640

The dashed part of the orbit path shows where the satellite is in the earth's shadow,  

DLR